User: anonymous
Location: The D'Auria's Ocala Star Observatory
(29.0276°N, 82.1742°W)
Time: 14:15:25
(UTC-04:00)
Language:

Abrixas rocket - Orbit

View from above orbital plane
View from above orbital plane
View from above satellite
View from above satellite

Ground track
Ground track

The orbit data is extracted from the following two-line orbital elements,

1 25723U 99022C   14242.16587421  .00009052  00000-0  29941-3 0  7282
2 25723 048.4225 140.2465 0017525 211.0530 304.5872 15.31821506848494
Epoch (UTC): 30 August 2014 03:58:51
Eccentricity: 0.0017525
inclination: 48.4225°
perigee height: 458 km
apogee height: 482 km
right ascension of ascending node: 140.2465°
argument of perigee: 211.0530°
revolutions per day: 15.31821506
mean anomaly at epoch: 304.5872°
orbit number at epoch: 84849

The dashed part of the orbit path shows where the satellite is in the earth's shadow,  

DLR